(135129) = 1987 SD26 = 2001 QR169

Discovered at Socorro on 2001-08-22 by LINEAR.

Orbit

Orbit type: Main Belt

Note: WebGL enabled browser required.

epoch2024-03-31.0
epoch JD2460400.5
perihelion date2022-06-14.23597
perihelion JD2459744.73597
argument of perihelion (°)39.38651
ascending node (°)332.01590
inclination (°)4.55808
eccentricity0.2400468
perihelion distance (AU)1.7406883
Tisserand w.r.t. Jupiter3.6
ΔV w.r.t. Earth (km/sec)8.3
semimajor axis (AU)2.2905205
mean anomaly (°)186.44475
mean daily motion (°/day)0.28431680
aphelion distance (AU)2.840
period (years)3.47
P-vector [x]0.97932115
P-vector [y]0.15970017
P-vector [z]0.12420124
Q-vector [x]-0.19884568
Q-vector [y]0.87296134
Q-vector [z]0.44541991
absolute magnitude16.12
phase slope0.15
uncertainty0
referenceMPEC 2024-F50
observations used787
oppositions18
arc length (days)13324
first opposition used1987
last opposition used2024
residual rms (arc-secs)0.73
perturbers coarse indicatorM-v
perturbers precise indicator003Ek
first observation date used1987-09-26.0
last observation date used2024-03-19.0
computer nameMPCLINUX
JD of orbit computation2456819.655555
perihelion JD uncertainty (days)4.6495E-05
argument of perihelion uncertainty (°)5.7207E-05
ascending node uncertainty (°)5.6111E-05
inclination uncertainty (°)4.0693E-06
eccentricity uncertainty 4.3625E-08
perihelion distance uncertainty (AU)1.0181E-07
Minimum Orbit Intersection Distances (in AU)
for orbit epoch: 2460400.5, reference: E2024-G51
Mercury1.39104
Venus1.02152
Earth0.74322
Mars0.34835
Jupiter2.62716
Saturn6.62514
Uranus15.6431
Neptune27.7519

Observations

809 total observations over interval: 1987 09 26.89957 – 2024 03 19.514131
These data are available for download (format description).

Date (UT) J2000 RA J2000 Dec Magn Location Ref
1987 09 26.89957 23 56 25.99 +05 29 28.2 16.5 V 095 – Crimea-Nauchnyi MPC 15300
1994 10 29.29481 01 05 43.43 +16 21 06.3 17.1 V 691 – Steward Observatory, Kitt Peak-Spacewatch MPS 175681
1994 10 29.30294 01 05 43.06 +16 21 04.5   691 – Steward Observatory, Kitt Peak-Spacewatch MPS 175681
1994 10 29.31114 01 05 42.67 +16 21 02.8   691 – Steward Observatory, Kitt Peak-Spacewatch MPS 175681
1999 01 23.36958 09 04 18.34 +19 56 25.9 20.1 V 691 – Steward Observatory, Kitt Peak-Spacewatch MPS 79886
1999 01 23.37537 09 04 17.92 +19 56 26.9 20.2 V 691 – Steward Observatory, Kitt Peak-Spacewatch MPS 79886
1999 01 23.38112 09 04 17.49 +19 56 28.3 19.8 V 691 – Steward Observatory, Kitt Peak-Spacewatch MPS 79886
2001 07 28.39076 01 58 20.07 +14 41 04.2 18.8 R 699 – Lowell Observatory-LONEOS MPS 37822
2001 07 28.41271 01 58 22.30 +14 41 21.5   699 – Lowell Observatory-LONEOS MPS 37822
2001 07 28.43469 01 58 24.55 +14 41 37.3   699 – Lowell Observatory-LONEOS MPS 37822
2001 07 28.45673 01 58 26.86 +14 41 55.1   699 – Lowell Observatory-LONEOS MPS 37822
2001 08 22.38362 02 37 03.49 +19 39 19.3 18.7   704 – Lincoln Laboratory ETS, New Mexico MPS 34783
2001 08 22.40094 02 37 04.84 +19 39 31.1 18.6   704 – Lincoln Laboratory ETS, New Mexico MPS 34783
2001 08 22.41317 02 37 05.79 +19 39 39.5 19.0   704 – Lincoln Laboratory ETS, New Mexico MPS 34783
2001 08 22.42536 02 37 06.68 +19 39 47.8 19.0   704 – Lincoln Laboratory ETS, New Mexico MPS 34783
2001 08 22.43801 02 37 07.65 +19 39 55.8 19.0   704 – Lincoln Laboratory ETS, New Mexico MPS 34783
2001 08 25.40413 02 40 56.61 +20 11 21.2 18.4 R 699 – Lowell Observatory-LONEOS MPS 34783
2001 08 25.42058 02 40 57.77 +20 11 32.6   699 – Lowell Observatory-LONEOS MPS 34783
2001 08 25.43703 02 40 58.98 +20 11 42.8   699 – Lowell Observatory-LONEOS MPS 34783
2001 08 25.45354 02 41 00.14 +20 11 53.5   699 – Lowell Observatory-LONEOS MPS 34783
2001 08 27.39276 02 43 22.93 +20 31 56.8 18.4   704 – Lincoln Laboratory ETS, New Mexico MPS 34783
2001 08 27.40623 02 43 23.88 +20 32 05.2 18.5   704 – Lincoln Laboratory ETS, New Mexico MPS 34783
2001 08 27.41960 02 43 24.80 +20 32 13.3 18.7   704 – Lincoln Laboratory ETS, New Mexico MPS 34783
2001 08 27.43295 02 43 25.77 +20 32 21.9 19.2   704 – Lincoln Laboratory ETS, New Mexico MPS 34783
2001 08 27.44632 02 43 26.66 +20 32 30.2 18.9   704 – Lincoln Laboratory ETS, New Mexico MPS 34783
2001 09 09.43206 02 56 38.90 +22 36 02.4 18.3   704 – Lincoln Laboratory ETS, New Mexico MPS 34783
2001 09 09.45374 02 56 39.89 +22 36 14.6 19.0   704 – Lincoln Laboratory ETS, New Mexico MPS 34783
2001 09 09.46734 02 56 40.51 +22 36 21.3 18.8   704 – Lincoln Laboratory ETS, New Mexico MPS 34783
2001 09 20.41132 03 03 21.88 +24 03 48.2 18.3   704 – Lincoln Laboratory ETS, New Mexico MPS 36064
2001 09 20.42645 03 03 22.19 +24 03 54.5 18.4   704 – Lincoln Laboratory ETS, New Mexico MPS 36064
2001 09 20.44100 03 03 22.50 +24 04 00.9 18.5   704 – Lincoln Laboratory ETS, New Mexico MPS 36064
2001 09 20.45564 03 03 22.82 +24 04 07.0 18.4   704 – Lincoln Laboratory ETS, New Mexico MPS 36064
2001 09 21.39290 03 03 44.24 +24 10 45.4 18.0   644 – Palomar Mountain/NEAT MPS 36064
2001 09 21.41426 03 03 44.63 +24 10 54.6 18.2   644 – Palomar Mountain/NEAT MPS 36064
2001 09 21.43566 03 03 45.00 +24 11 03.7 18.2   644 – Palomar Mountain/NEAT MPS 36064
2001 09 22.35160 03 04 03.63 +24 17 25.4 18.3   704 – Lincoln Laboratory ETS, New Mexico MPS 36064
2001 09 22.36737 03 04 03.89 +24 17 32.1 18.5   704 – Lincoln Laboratory ETS, New Mexico MPS 36064
2001 09 22.38236 03 04 04.14 +24 17 38.4 18.4   704 – Lincoln Laboratory ETS, New Mexico MPS 36064
2001 09 22.39661 03 04 04.36 +24 17 44.4 18.3   704 – Lincoln Laboratory ETS, New Mexico MPS 36064
2001 09 23.33505 03 04 21.13 +24 24 06.3 18.6   704 – Lincoln Laboratory ETS, New Mexico MPS 43689
2001 09 23.34978 03 04 21.37 +24 24 11.6 18.8   704 – Lincoln Laboratory ETS, New Mexico MPS 43689
2001 09 23.36438 03 04 21.62 +24 24 17.7 18.5   704 – Lincoln Laboratory ETS, New Mexico MPS 43689
2001 09 23.38046 03 04 21.71 +24 24 24.8 18.8   704 – Lincoln Laboratory ETS, New Mexico MPS 43689
2001 09 23.39516 03 04 21.94 +24 24 31.3 18.7   704 – Lincoln Laboratory ETS, New Mexico MPS 43689
2001 10 12.34739 03 01 50.01 +25 56 32.0 17.4 R 699 – Lowell Observatory-LONEOS MPS 37822
2001 10 12.36943 03 01 49.22 +25 56 35.6   699 – Lowell Observatory-LONEOS MPS 37822
2001 10 12.39124 03 01 48.41 +25 56 39.2   699 – Lowell Observatory-LONEOS MPS 37822
2001 10 12.40193 03 01 48.00 +25 56 40.7   699 – Lowell Observatory-LONEOS MPS 37822
2001 10 14.25788 03 00 44.72 +26 01 17.2 18.1   704 – Lincoln Laboratory ETS, New Mexico MPS 37822
2001 10 14.27355 03 00 44.09 +26 01 19.6 18.4   704 – Lincoln Laboratory ETS, New Mexico MPS 37822
2001 10 14.28973 03 00 43.43 +26 01 22.1 17.8   704 – Lincoln Laboratory ETS, New Mexico MPS 37822
2001 10 14.30539 03 00 42.78 +26 01 24.2 17.8   704 – Lincoln Laboratory ETS, New Mexico MPS 37822
2001 10 14.32104 03 00 42.15 +26 01 26.6 18.0   704 – Lincoln Laboratory ETS, New Mexico MPS 37822
2001 10 18.31847 02 57 58.58 +26 08 15.4 17.5   704 – Lincoln Laboratory ETS, New Mexico MPS 39269
2001 10 18.33429 02 57 57.81 +26 08 16.6 17.6   704 – Lincoln Laboratory ETS, New Mexico MPS 39269
2001 10 18.35000 02 57 57.06 +26 08 17.8 18.1   704 – Lincoln Laboratory ETS, New Mexico MPS 39269
2001 10 18.36571 02 57 56.36 +26 08 18.8 18.2   704 – Lincoln Laboratory ETS, New Mexico MPS 39269
2001 10 18.38293 02 57 55.42 +26 08 20.0 17.9   704 – Lincoln Laboratory ETS, New Mexico MPS 39269
2001 10 21.32575 02 55 35.00 +26 10 33.1 18.1   704 – Lincoln Laboratory ETS, New Mexico MPS 40311
2001 10 21.34376 02 55 34.03 +26 10 33.6 18.4   704 – Lincoln Laboratory ETS, New Mexico MPS 40311
2001 10 21.35989 02 55 33.11 +26 10 33.7 18.8   704 – Lincoln Laboratory ETS, New Mexico MPS 40311
2001 10 21.37593 02 55 32.24 +26 10 34.2 18.8   704 – Lincoln Laboratory ETS, New Mexico MPS 40311
2001 10 21.39208 02 55 31.36 +26 10 34.5 18.8   704 – Lincoln Laboratory ETS, New Mexico MPS 40311
2001 10 25.60545 02 51 46.66 +26 09 36.6   300 – Bisei Spaceguard Center-BATTeRS MPS 39269
2001 10 25.61110 02 51 46.32 +26 09 37.3   300 – Bisei Spaceguard Center-BATTeRS MPS 39269
2001 10 25.61385 02 51 46.16 +26 09 35.7   300 – Bisei Spaceguard Center-BATTeRS MPS 39269
2001 10 25.61660 02 51 46.05 +26 09 36.4   300 – Bisei Spaceguard Center-BATTeRS MPS 39269
2001 10 25.61933 02 51 45.87 +26 09 35.8   300 – Bisei Spaceguard Center-BATTeRS MPS 39269
2001 10 25.62207 02 51 45.64 +26 09 36.0   300 – Bisei Spaceguard Center-BATTeRS MPS 39269
2001 10 27.25341 02 50 12.87 +26 07 58.4 17.9   704 – Lincoln Laboratory ETS, New Mexico MPS 43689
2001 10 27.27084 02 50 11.82 +26 07 57.1 18.0   704 – Lincoln Laboratory ETS, New Mexico MPS 43689
2001 10 27.28778 02 50 10.71 +26 07 56.0 17.9   704 – Lincoln Laboratory ETS, New Mexico MPS 43689
2001 10 27.30412 02 50 09.72 +26 07 54.9 17.7   704 – Lincoln Laboratory ETS, New Mexico MPS 43689
2001 10 27.32055 02 50 08.68 +26 07 54.3 17.8   704 – Lincoln Laboratory ETS, New Mexico MPS 43689
2001 11 11.28542 02 35 13.27 +25 23 49.8 17.0 R 699 – Lowell Observatory-LONEOS MPS 43689
2001 11 11.30812 02 35 11.85 +25 23 44.1   699 – Lowell Observatory-LONEOS MPS 43689
2001 11 11.33087 02 35 10.47 +25 23 37.6   699 – Lowell Observatory-LONEOS MPS 43689
2001 11 11.34707 02 35 09.54 +25 23 33.8 16.9   644 – Palomar Mountain/NEAT MPS 43689
2001 11 11.35366 02 35 09.09 +25 23 31.6   699 – Lowell Observatory-LONEOS MPS 43689
2001 11 11.36837 02 35 08.26 +25 23 28.0 17.1   644 – Palomar Mountain/NEAT MPS 43689
2001 11 11.38938 02 35 06.96 +25 23 22.2 16.9   644 – Palomar Mountain/NEAT MPS 43689
2001 11 12.28517 02 34 16.66 +25 19 24.3 18.2   704 – Lincoln Laboratory ETS, New Mexico MPS 43689
2001 11 12.29989 02 34 15.78 +25 19 20.3 18.2   704 – Lincoln Laboratory ETS, New Mexico MPS 43689
2001 11 12.31464 02 34 14.91 +25 19 16.3 18.2   704 – Lincoln Laboratory ETS, New Mexico MPS 43689
2001 11 12.32936 02 34 14.03 +25 19 11.9 18.1   704 – Lincoln Laboratory ETS, New Mexico MPS 43689
2001 11 12.34408 02 34 13.15 +25 19 07.6 18.1   704 – Lincoln Laboratory ETS, New Mexico MPS 43689
